This demonstration page uses our WeatherBlox Daily Observations layout. Learn more.

Left ArrowRight Arrow

Hourly Observations for January 10, 2017

Temp ( °F °C ) Dew Point ( °F °C ) Humidity (%) Winds ( mph kmh ) Pressure ( in mb ) Visibility ( mi km ) Precip ( " mm )
12:59 am 00:59 Clear 19 -7.2 14 -10 81 81 Calm 30.66 1038 10 16 0.00 0.00
1:59 am 01:59 Clear 17 -8.3 13 -10.6 84 84 Calm 30.65 1038 10 16 0.00 0.00
2:59 am 02:59 Clear 17 -8.3 14 -10 88 88 Calm 30.63 1037 9 14 0.00 0.00
3:59 am 03:59 Clear 17 -8.3 13 -10.6 84 84 Calm 30.61 1037 9 14 0.00 0.00
4:59 am 04:59 Clear 18 -7.8 15 -9.4 88 88 WSW 3 6 30.65 1038 10 16 0.00 0.00
5:59 am 05:59 Partly Cloudy 17 -8.3 13 -10.6 84 84 Calm 30.64 1038 10 16 0.00 0.00
6:59 am 06:59 Mostly Cloudy 19 -7.2 16 -8.9 88 88 Calm 30.63 1037 10 16 0.00 0.00
7:59 am 07:59 Mostly Cloudy 23 -5 18 -7.8 81 81 Calm 30.63 1037 9 14 0.00 0.00
8:59 am 08:59 Mostly Cloudy 26 -3.3 21 -6.1 81 81 Calm 30.64 1038 9 14 0.00 0.00
9:59 am 09:59 Mostly Cloudy 30 -1.1 19 -7.2 64 64 Calm 30.63 1037 10 16 0.00 0.00
10:59 am 10:59 Mostly Cloudy 32 0 15 -9.4 50 50 Calm 30.61 1037 8 13 0.00 0.00
12:59 pm 12:59 Mostly Cloudy 40 4.4 6 -14.4 24 24 S 5 7 30.52 1034 10 16 0.00 0.00
1:59 pm 13:59 Mostly Cloudy 40 4.4 8 -13.3 27 27 S 5 7 30.50 1033 10 16 0.00 0.00
2:59 pm 14:59 Mostly Cloudy 42 5.6 6 -14.4 22 22 SSE 7 11 30.47 1032 10 16 0.00 0.00
3:59 pm 15:59 Mostly Cloudy 42 5.6 14 -10 32 32 S 6 9 30.45 1031 10 16 0.00 0.00
4:59 pm 16:59 Mostly Cloudy 41 5 18 -7.8 39 39 S 6 9 30.44 1031 10 16 0.00 0.00
5:59 pm 17:59 Cloudy 40 4.4 22 -5.6 49 49 S 7 11 30.45 1031 10 16 0.00 0.00
6:59 pm 18:59 Mostly Cloudy 40 4.4 24 -4.4 53 53 S 5 7 30.45 1031 10 16 0.00 0.00
7:59 pm 19:59 Cloudy 41 5 29 -1.7 62 62 SSE 8 13 30.43 1030 10 16 0.00 0.00
8:59 pm 20:59 Cloudy 42 5.6 37 2.8 82 82 S 9 15 30.41 1030 10 16 0.00 0.00
9:59 pm 21:59 Cloudy 45 7.2 42 5.6 90 90 S 9 15 30.39 1029 8 13 0.00 0.00
10:52 pm 22:52 Cloudy with Mist and Fog 44 6.7 42 5.6 93 93 S 9 15 30.39 1029 5 8 0.00 0.00
10:59 pm 22:59 Cloudy with Mist and Fog 44 6.7 42 5.6 93 93 S 10 17 30.37 1028 6 10 0.00 0.00
11:59 pm 23:59 Mostly Cloudy 45 7.2 43 6.1 93 93 S 10 17 30.35 1028 9 14 0.00 0.00

Powered by AerisWeather